| DS18B20 | SHTC3 | ||||||
|---|---|---|---|---|---|---|---|
| ID | Date d/m/Y & Time | data1 สูง | data2 ต่ำ | data3 นอก | temp pcb | hum pcb | Time |
| 190 | 07/03/2026 08:26:23 | 26.7  | 26.7  | 28.0  | 26.6  | 71.1  | 08:26 |
| 189 | 07/03/2026 08:21:41 | 26.6  | 26.7  | 27.9  | 26.6  | 71.2  | 08:21 |
| 188 | 07/03/2026 08:17:00 | 26.6  | 26.7  | 27.5  | 26.6  | 71.4  | 08:17 |
| 187 | 07/03/2026 08:12:18 | 26.6  | 26.6  | 27.2  | 26.5  | 71.2  | 08:12 |
| 186 | 07/03/2026 08:07:37 | 26.6  | 26.6  | 27.1  | 26.4  | 71.2  | 08:07 |
| 185 | 07/03/2026 08:02:55 | 26.6  | 26.6  | 26.9  | 26.5  | 71.5  | 08:02 |
| 184 | 07/03/2026 07:58:14 | 26.6  | 26.6  | 26.9  | 26.5  | 71.5  | 07:58 |
| 183 | 07/03/2026 07:53:32 | 26.5  | 26.6  | 26.8  | 26.4  | 71.4  | 07:53 |
| 182 | 07/03/2026 07:48:50 | 26.5  | 26.5  | 26.7  | 26.4  | 71.5  | 07:48 |
| 181 | 07/03/2026 07:44:08 | 26.5  | 26.5  | 26.7  | 26.4  | 71.5  | 07:44 |
| 180 | 07/03/2026 07:39:26 | 26.5  | 26.5  | 26.5  | 26.4  | 71.5  | 07:39 |
| 179 | 07/03/2026 07:34:45 | 26.5  | 26.5  | 26.3  | 26.4  | 71.7  | 07:34 |
| 178 | 07/03/2026 07:30:03 | 26.5  | 26.5  | 26.1  | 26.2  | 71.5  | 07:30 |
| 177 | 07/03/2026 07:25:22 | 26.5  | 26.5  | 25.9  | 26.5  | 71.5  | 07:25 |
| 176 | 07/03/2026 07:20:40 | 26.5  | 26.5  | 25.9  | 26.4  | 71.5  | 07:20 |
| 175 | 07/03/2026 07:16:00 | 26.5  | 26.5  | 25.7  | 26.4  | 71.7  | 07:16 |
| 174 | 07/03/2026 07:11:19 | 26.5  | 26.5  | 25.7  | 26.2  | 71.5  | 07:11 |
| 173 | 07/03/2026 07:06:37 | 26.5  | 26.6  | 25.7  | 26.4  | 71.6  | 07:06 |
| 172 | 07/03/2026 07:01:55 | 26.5  | 26.6  | 25.7  | 26.5  | 71.5  | 07:01 |
| 171 | 07/03/2026 06:57:13 | 26.5  | 26.6  | 25.7  | 26.5  | 71.6  | 06:57 |
| 170 | 07/03/2026 06:52:30 | 26.5  | 26.6  | 25.7  | 26.5  | 71.6  | 06:52 |
| 169 | 07/03/2026 06:47:49 | 26.6  | 26.6  | 25.8  | 26.4  | 71.6  | 06:47 |
| 168 | 07/03/2026 06:43:09 | 26.6  | 26.6  | 25.7  | 26.4  | 71.6  | 06:43 |
| 167 | 07/03/2026 06:38:28 | 26.6  | 26.6  | 25.9  | 26.5  | 71.6  | 06:38 |